Temperature
2 2 2 2 2 2 2 2 2 2 2 2 2 2 2 2 2 2 2 2 2 2 2 2 2 2 2 2 2 2 2 2 1 2 2 2 2 2 2 2 2 2 2
1 1 1 1 1 1 1 1 1 1 1 1 1 1 1 1 1 1 1 1 1 1 1 1 1 1 1 1 1 1 1 1 1 1 1 1 1 1 2 2 2 2 2
1 1 1 1 1 1 1 1 1 1 1 1 1 1 1 1 1 1 1 1 1 1 1 1 1 1 0 0 0 1 1 1 1 1 1 1 1 1 1 1 1 1 1
0 0 0 0 0 0 0 0 0 0 0 0 0 0 0 0 0 0 0 0 0 0 0 0 0 0 -0 0 0 0 0 0 0 0 0 0 0 0 0 1 1 1 1
-0 -0 -0 -0 -0 -0 -0 -0 -0 -0 -0 -0 -0 -0 -0 -0 -0 -0 -0 -0 -0 0 0 -0 -0 -0 -0 -0 -0 -0 -0 -0 -0 -0 -0 -0 -0 0 0 0 0 0 1
-0 -1 -1 -1 -1 -1 -1 -1 -1 -1 -1 -1 -1 -1 -1 -1 -1 -1 -1 -0 -1 -0 -0 -0 -1 -1 -1 -1 -1 -1 -0 -1 -1 -1 -1 -1 -0 -0 -0 -0 -0 -0 -0
-1 -1 -1 -1 -1 -1 -1 -1 -1 -1 -1 -1 -2 -1 -1 -1 -1 -1 -1 -1 -1 -1 -1 -1 -1 -1 -1 -1 -1 -1 -1 -1 -1 -1 -1 -1 -1 -1 -1 -1 -1 -1 -1
-1 -1 -1 -2 -2 -2 -2 -2 -2 -2 -2 -2 -2 -2 -2 -2 -2 -2 -2 -2 -1 -1 -1 -1 -1 -2 -2 -2 -2 -1 -1 -1 -1 -1 -1 -1 -1 -1 -1 -1 -1 -1 -1
-2 -2 -2 -2 -2 -2 -2 -2 -2 -3 -3 -3 -2 -2 -2 -2 -2 -2 -2 -2 -2 -2 -2 -2 -2 -2 -2 -2 -2 -2 -2 -2 -2 -2 -2 -2 -2 -2 -1 -1 -1 -1 -1
-2 -2 -2 -2 -2 -2 -3 -3 -3 -3 -3 -3 -3 -3 -3 -3 -3 -3 -3 -3 -3 -3 -3 -2 -2 -2 -2 -2 -2 -2 -2 -2 -2 -2 -2 -2 -2 -2 -2 -2 -2 -2 -2
-2 -2 -3 -3 -3 -3 -3 -3 -3 -3 -3 -3 -3 -4 -4 -4 -4 -3 -3 -3 -3 -3 -3 -3 -3 -3 -2 -2 -2 -2 -2 -2 -2 -2 -2 -2 -2 -2 -2 -2 -2 -2 -2
-3 -3 -3 -3 -3 -3 -4 -4 -4 -4 -4 -4 -4 -4 -4 -4 -4 -4 -4 -4 -3 -3 -3 -3 -3 -3 -3 -3 -3 -3 -3 -2 -2 -2 -2 -2 -2 -2 -2 -2 -2 -2 -2
-3 -3 -3 -3 -3 -4 -4 -4 -4 -4 -4 -4 -4 -4 -4 -4 -4 -4 -4 -4 -4 -4 -3 -3 -3 -3 -3 -3 -3 -3 -3 -3 -3 -3 -3 -3 -3 -3 -2 -2 -2 -2 -2
-3 -3 -3 -4 -4 -4 -4 -4 -4 -4 -4 -4 -5 -5 -4 -4 -4 -4 -4 -4 -4 -4 -3 -3 -3 -3 -3 -3 -3 -3 -3 -3 -3 -3 -3 -3 -3 -3 -3 -3 -3 -2 -2
-3 -4 -4 -4 -4 -4 -4 -4 -4 -4 -5 -5 -5 -5 -5 -5 -5 -5 -5 -4 -4 -4 -4 -3 -3 -3 -3 -3 -3 -3 -3 -3 -3 -3 -3 -3 -3 -3 -3 -3 -3 -3 -3
-4 -4 -4 -4 -4 -5 -5 -5 -5 -5 -5 -5 -5 -5 -5 -5 -5 -5 -5 -4 -4 -4 -4 -4 -4 -4 -4 -4 -4 -4 -4 -4 -4 -3 -3 -3 -3 -3 -3 -3 -3 -3 -3
-4 -4 -5 -5 -5 -5 -5 -5 -5 -5 -5 -5 -5 -5 -5 -5 -5 -5 -5 -4 -4 -4 -4 -4 -4 -4 -4 -4 -4 -4 -4 -4 -4 -4 -4 -4 -4 -4 -4 -4 -4 -3 -3
-5 -5 -5 -5 -5 -5 -5 -5 -5 -5 -5 -5 -5 -5 -5 -5 -5 -5 -5 -4 -4 -4 -4 -4 -4 -4 -4 -4 -4 -4 -4 -4 -4 -4 -4 -4 -4 -4 -4 -4 -4 -4 -4
-5 -5 -5 -5 -6 -6 -6 -6 -6 -5 -5 -5 -5 -5 -5 -5 -5 -4 -4 -4 -4 -5 -4 -4 -4 -4 -4 -4 -4 -4 -4 -4 -4 -4 -4 -4 -4 -4 -4 -4 -4 -4 -4
-5 -5 -6 -6 -6 -6 -6 -6 -6 -6 -6 -6 -5 -5 -5 -5 -5 -4 -4 -5 -5 -5 -5 -4 -4 -4 -4 -4 -4 -4 -4 -4 -4 -4 -4 -4 -4 -4 -4 -4 -4 -4 -4
-6 -6 -6 -6 -6 -6 -6 -6 -6 -6 -6 -6 -6 -5 -5 -5 -5 -5 -5 -5 -5 -5 -5 -5 -5 -4 -4 -4 -4 -4 -4 -4 -4 -4 -4 -4 -4 -4 -4 -4 -4 -4 -4
-6 -6 -6 -6 -6 -6 -6 -6 -6 -6 -6 -6 -5 -5 -5 -5 -5 -5 -5 -5 -5 -5 -5 -5 -5 -4 -4 -4 -4 -4 -4 -4 -4 -4 -4 -4 -4 -4 -4 -4 -4 -4 -4
-6 -6 -6 -6 -6 -6 -6 -6 -6 -6 -6 -6 -6 -5 -5 -5 -5 -5 -5 -5 -5 -5 -5 -5 -4 -4 -4 -4 -4 -4 -4 -4 -4 -4 -4 -4 -4 -4 -4 -4 -4 -4 -4
-6 -6 -6 -6 -6 -6 -6 -6 -6 -6 -6 -6 -6 -6 -6 -6 -5 -5 -5 -5 -5 -5 -5 -5 -4 -4 -4 -4 -4 -4 -4 -4 -4 -4 -4 -4 -4 -4 -4 -4 -4 -4 -4
-6 -6 -6 -6 -6 -6 -6 -6 -6 -6 -6 -6 -6 -6 -6 -5 -5 -5 -5 -5 -5 -5 -5 -5 -4 -4 -4 -4 -4 -4 -4 -4 -4 -4 -4 -4 -4 -4 -4 -4 -4 -4 -4
-6 -6 -6 -6 -6 -6 -6 -6 -6 -6 -6 -6 -6 -6 -6 -6 -6 -5 -5 -5 -5 -5 -5 -5 -5 -4 -4 -4 -4 -4 -4 -4 -4 -4 -4 -4 -4 -4 -4 -4 -4 -4 -4
Wind_Speed
1 1 1 1 2 2 2 3 3 3 3 3 4 4 3 3 3 3 3 3 3 3 4 4 4 4 4 3 3 4 4 4 7 6 4 4 5 6 5 6 7 6 7
1 1 1 2 2 2 2 3 2 3 3 3 3 3 4 3 3 3 4 3 3 4 4 4 4 4 4 4 4 4 4 4 5 7 6 4 6 5 5 5 5 6 6
1 1 2 2 2 2 3 3 2 3 3 3 3 3 4 4 3 3 3 4 4 4 4 4 4 4 4 4 4 4 4 4 4 5 6 4 5 4 5 5 5 4 6
1 2 2 2 2 2 3 2 3 3 3 3 3 3 4 4 4 4 4 4 4 4 4 4 4 4 4 4 4 4 4 4 3 4 5 4 4 4 4 4 5 4 5
2 2 2 2 2 2 2 2 3 3 3 3 3 4 3 3 3 4 4 4 3 3 3 4 4 5 5 5 5 4 3 3 3 4 4 4 4 4 4 4 5 5 5
2 2 2 2 2 2 2 2 3 3 3 3 3 3 3 4 5 6 5 4 3 3 4 3 4 4 5 6 7 6 5 5 4 4 4 5 5 5 4 4 4 5 4
2 2 2 2 2 2 2 2 2 2 2 3 3 3 3 4 6 7 7 4 3 3 3 3 4 4 5 4 5 6 6 7 7 6 5 6 6 5 4 5 4 5 5
2 2 2 2 2 2 2 2 2 2 2 3 3 3 3 4 7 7 7 4 3 3 4 4 4 4 4 4 3 4 4 4 5 4 4 5 5 5 4 5 5 4 4
2 2 2 1 2 2 2 2 2 2 2 3 3 3 3 4 7 7 6 3 3 3 4 4 3 4 5 5 4 3 3 3 4 5 5 5 7 7 5 3 3 3 4
2 2 2 1 1 2 2 2 2 2 3 3 4 3 4 4 6 7 6 2 3 3 3 3 4 5 5 5 3 3 3 4 3 4 4 5 4 5 5 3 3 3 3
2 2 2 1 1 1 2 2 2 3 3 3 4 3 3 4 6 7 7 3 3 3 3 3 3 6 6 5 4 3 4 3 2 2 2 2 3 3 3 3 2 2 3
2 2 2 1 2 2 2 2 2 2 3 3 3 4 3 3 5 7 8 6 5 3 3 3 4 6 6 5 4 4 4 3 1 1 1 2 2 2 3 3 3 3 2
1 1 2 2 1 1 2 2 2 2 2 3 3 3 4 4 4 7 8 7 7 4 3 5 7 6 5 4 4 4 2 1 1 1 2 2 2 2 2 3 3 3 3
1 1 2 1 2 2 2 2 2 2 2 3 3 4 4 4 4 4 4 4 5 4 3 5 6 5 4 4 3 2 1 1 1 1 2 2 2 2 2 2 3 3 3
1 1 1 1 2 2 2 2 2 2 2 3 3 3 3 4 5 8 6 4 3 3 3 2 2 2 2 2 2 2 2 2 2 1 1 1 2 2 2 2 2 2 2
1 1 1 1 2 2 2 2 3 3 5 5 5 5 5 6 8 8 8 8 7 6 3 1 2 2 2 2 2 2 2 2 2 2 1 1 1 2 2 2 2 2 2
0 1 1 1 1 2 2 2 3 4 5 6 6 6 6 7 8 8 8 7 6 5 2 1 1 1 1 2 2 2 2 2 2 1 1 1 1 2 2 2 2 2 2
0 1 1 1 1 1 2 2 2 3 4 4 5 7 7 8 8 7 7 5 3 3 1 1 1 1 1 1 2 2 2 2 1 1 1 1 1 1 1 2 2 2 2
0 0 0 1 1 2 2 2 2 3 3 3 3 4 7 7 7 7 6 2 2 2 2 1 1 1 1 1 2 2 2 1 1 1 1 1 1 1 1 1 2 2 2
0 1 1 1 1 2 2 2 2 2 2 3 3 3 4 4 4 4 4 3 2 3 3 2 2 1 1 1 1 1 1 1 1 1 1 1 1 1 1 1 1 1 1
0 0 1 1 1 1 2 2 2 2 2 3 3 4 5 3 3 3 3 3 3 3 3 3 2 2 1 1 1 1 2 1 1 1 1 1 1 1 1 1 1 1 1
1 0 1 1 1 1 1 2 2 2 2 3 3 3 6 3 3 3 3 3 3 3 3 2 2 2 1 1 1 1 1 1 1 1 1 1 1 1 1 1 1 1 1
1 1 0 1 1 1 2 1 2 2 2 2 3 3 3 3 3 3 3 4 4 3 3 2 2 2 2 2 2 1 1 1 1 1 0 1 1 0 0 1 1 1 1
1 1 0 0 0 1 1 1 1 2 2 2 2 3 3 3 3 4 4 3 3 3 3 3 2 3 3 3 3 2 1 1 1 0 0 0 0 0 0 1 0 0 0
1 1 1 0 0 0 1 1 1 2 2 2 2 3 3 3 3 3 4 4 4 4 4 4 3 3 3 4 3 3 3 3 2 1 1 1 1 0 1 1 0 0 0
1 1 1 0 0 0 0 1 1 1 2 2 2 2 3 3 3 3 3 3 4 4 4 4 4 4 4 4 4 4 4 4 3 2 1 1 1 1 1 1 1 0 0
Wind_Direction
302 295 308 310 308 302 289 287 292 296 296 292 291 286 278 271 259 255 257 254 253 260 261 260 264 267 268 270 269 270 268 263 270 284 284 288 293 290 292 291 287 284 285
295 306 312 307 299 291 290 294 302 300 297 290 287 287 283 281 275 262 262 264 258 261 264 264 266 271 268 266 265 266 269 268 266 279 289 289 284 284 287 287 293 293 285
300 305 309 304 297 291 298 306 308 303 302 299 297 292 289 287 282 274 265 269 264 262 260 260 266 266 268 267 268 266 270 276 268 272 284 288 292 297 299 296 292 295 294
319 301 294 288 285 293 302 306 303 299 298 298 295 288 287 287 283 279 281 278 274 270 267 262 261 258 262 264 268 265 265 269 271 274 280 289 290 294 295 294 298 297 296
326 311 298 296 303 311 314 309 307 305 299 293 293 290 289 286 285 290 286 285 279 282 283 275 275 279 275 272 274 271 263 264 272 274 279 291 292 302 296 292 294 300 293
314 305 312 311 305 303 305 305 308 310 311 311 302 297 300 299 306 309 307 291 286 284 286 282 280 280 285 288 288 282 270 260 266 271 279 283 285 287 293 297 300 306 300
308 308 318 311 303 303 303 308 309 312 320 321 317 315 309 308 313 315 318 312 296 288 282 282 289 291 290 272 290 296 283 276 268 264 270 276 283 290 294 296 295 295 292
304 307 316 317 309 311 317 317 316 319 323 318 318 319 318 317 323 321 325 322 305 297 289 281 279 283 290 291 291 291 282 278 275 272 272 281 289 293 281 278 283 295 304
306 312 314 311 305 309 317 323 323 327 324 317 317 323 322 319 325 328 330 315 305 302 295 288 282 277 294 300 291 287 291 295 309 309 306 311 313 312 315 309 306 305 308
308 308 305 298 298 311 317 317 318 319 315 319 319 319 314 310 322 328 327 306 304 309 306 297 291 290 295 292 274 267 279 290 304 315 320 324 321 320 324 312 291 292 305
309 311 307 306 305 313 318 312 316 317 318 318 314 314 311 314 322 324 324 316 303 306 307 307 299 303 298 292 288 269 281 294 291 297 308 321 326 329 333 336 327 289 289
309 307 307 308 312 319 309 310 314 316 321 319 318 321 321 319 325 321 322 319 317 301 295 298 303 313 310 298 289 305 316 322 313 322 328 331 326 326 327 337 347 347 329
314 311 311 320 327 322 308 306 314 318 318 318 323 325 327 329 329 332 329 324 323 318 305 312 317 320 319 309 309 316 318 317 329 326 313 315 316 316 328 340 352 359 3
308 309 318 332 330 330 326 317 311 314 316 320 323 322 321 320 322 325 323 320 323 320 316 315 319 328 332 332 335 328 316 308 305 298 311 324 337 341 339 342 340 345 356
313 317 331 335 324 331 336 326 312 301 293 301 296 296 303 305 309 320 321 315 314 312 326 323 328 340 349 348 341 347 344 341 341 337 345 350 349 348 347 353 354 358 10
328 353 355 348 340 338 335 335 338 317 322 317 308 305 303 304 312 320 322 325 329 332 337 327 328 335 339 343 349 353 356 353 345 346 353 347 346 350 354 360 7 9 7
266 318 333 338 333 331 332 327 329 337 337 331 329 325 322 324 327 328 331 335 339 346 348 320 314 323 334 334 338 338 337 336 338 344 349 356 354 354 359 4 9 7 359
263 304 315 303 310 315 313 311 316 323 329 334 335 335 338 339 338 338 342 348 345 354 337 321 325 322 332 334 332 330 336 339 344 351 0 4 359 1 6 2 3 0 354
261 259 314 321 318 314 319 325 325 320 317 318 327 338 346 343 345 353 359 359 335 330 332 331 329 330 330 333 332 327 324 324 339 358 4 0 2 16 5 356 360 1 5
228 317 325 320 323 327 332 329 322 318 320 325 330 330 333 340 346 349 354 350 343 335 334 338 335 335 327 327 329 327 326 329 347 9 1 347 347 1 356 351 358 6 9
193 299 328 327 322 327 324 320 317 318 324 326 324 327 341 344 341 339 343 344 342 340 339 340 335 331 334 333 333 338 332 326 348 11 8 345 341 356 8 10 12 18 28
186 225 263 284 313 324 325 323 327 326 323 324 330 338 352 0 353 349 347 343 340 339 338 340 343 344 337 339 332 329 328 330 344 357 349 336 344 19 32 36 36 26 30
180 209 278 317 340 329 339 340 336 330 329 335 344 350 352 357 355 350 346 343 344 348 354 360 358 0 5 359 357 349 311 302 295 260 250 304 328 6 74 69 44 22 9
190 206 221 313 335 327 324 331 337 338 341 346 350 350 349 350 349 346 346 346 350 356 357 358 360 358 357 360 2 353 340 330 325 285 164 180 340 39 86 80 44 12 12
171 180 185 208 260 300 319 336 343 344 350 351 349 348 349 349 349 349 350 353 354 357 356 356 359 2 4 359 356 353 353 358 360 16 99 111 121 126 128 109 96 4 336
176 180 170 175 205 280 307 326 336 340 344 343 342 343 346 347 348 351 353 355 358 358 358 360 360 357 356 2 1 0 3 10 17 26 86 115 129 137 139 141 150 164 213
Height
1445 1444 1443 1443 1442 1442 1442 1442 1441 1441 1441 1441 1440 1440 1439 1439 1438 1439 1438 1438 1438 1438 1437 1437 1436 1436 1436 1436 1436 1435 1434 1433 1430 1428 1428 1428 1427 1425 1423 1422 1421 1419 1417
1442 1441 1441 1440 1440 1439 1439 1439 1438 1438 1437 1437 1436 1436 1436 1435 1435 1435 1435 1434 1434 1433 1433 1432 1432 1432 1431 1431 1430 1430 1429 1429 1427 1424 1423 1423 1422 1420 1419 1417 1416 1414 1412
1439 1439 1438 1437 1437 1436 1436 1435 1435 1434 1434 1433 1433 1432 1432 1431 1431 1431 1431 1430 1430 1429 1429 1428 1428 1428 1427 1426 1426 1425 1425 1424 1423 1421 1419 1418 1417 1416 1414 1413 1411 1410 1408
1437 1436 1435 1435 1434 1433 1433 1432 1432 1431 1430 1430 1429 1429 1428 1428 1428 1428 1427 1427 1426 1425 1425 1425 1424 1424 1423 1422 1422 1421 1420 1420 1419 1418 1416 1414 1413 1412 1411 1408 1406 1405 1404
1434 1433 1432 1432 1431 1430 1430 1429 1429 1428 1427 1427 1426 1425 1425 1424 1424 1424 1423 1423 1422 1421 1421 1421 1420 1420 1419 1419 1418 1417 1417 1416 1415 1414 1413 1411 1410 1408 1407 1405 1403 1401 1400
1432 1431 1430 1429 1428 1428 1427 1427 1426 1425 1424 1424 1423 1422 1421 1421 1421 1421 1420 1419 1418 1418 1417 1416 1416 1416 1415 1415 1414 1414 1413 1413 1411 1411 1409 1408 1406 1406 1404 1403 1401 1398 1396
1429 1428 1427 1426 1426 1425 1425 1424 1423 1422 1422 1421 1420 1419 1418 1417 1417 1417 1417 1416 1415 1414 1413 1413 1412 1412 1411 1411 1410 1409 1409 1409 1409 1408 1406 1404 1404 1403 1402 1400 1398 1396 1394
1426 1425 1425 1424 1423 1422 1422 1421 1420 1419 1418 1418 1417 1416 1415 1414 1414 1414 1413 1412 1411 1411 1410 1409 1408 1408 1408 1408 1407 1405 1405 1404 1404 1404 1403 1401 1401 1400 1399 1398 1396 1394 1392
1423 1423 1422 1421 1421 1420 1419 1418 1418 1417 1415 1415 1414 1413 1412 1411 1411 1411 1410 1409 1408 1407 1406 1406 1405 1405 1405 1405 1404 1402 1401 1401 1401 1400 1399 1398 1398 1397 1397 1395 1393 1391 1389
1421 1421 1420 1419 1418 1417 1417 1416 1415 1414 1413 1412 1411 1410 1409 1409 1408 1408 1407 1406 1404 1403 1403 1402 1402 1402 1402 1401 1401 1399 1398 1397 1397 1396 1396 1395 1395 1394 1393 1392 1391 1389 1387
1419 1418 1418 1417 1416 1416 1415 1414 1413 1412 1411 1410 1409 1408 1407 1406 1406 1405 1405 1403 1402 1401 1400 1399 1399 1399 1398 1398 1398 1397 1396 1396 1394 1393 1393 1392 1392 1391 1390 1389 1388 1387 1386
1417 1416 1416 1415 1414 1414 1413 1412 1411 1410 1409 1407 1406 1405 1405 1404 1403 1402 1402 1401 1400 1399 1397 1397 1396 1396 1395 1395 1395 1394 1393 1393 1392 1391 1390 1389 1389 1388 1388 1387 1386 1385 1385
1414 1414 1413 1413 1413 1412 1411 1410 1409 1408 1407 1405 1404 1403 1402 1401 1401 1400 1399 1398 1397 1396 1395 1394 1394 1393 1393 1392 1391 1391 1391 1390 1390 1389 1388 1388 1387 1387 1386 1385 1384 1384 1383
1412 1412 1412 1411 1411 1410 1409 1408 1407 1406 1405 1404 1403 1401 1400 1399 1399 1398 1397 1396 1395 1394 1393 1392 1391 1390 1390 1389 1389 1389 1388 1388 1388 1387 1387 1386 1386 1386 1385 1384 1383 1382 1381
1410 1410 1410 1409 1409 1408 1407 1407 1406 1405 1404 1403 1401 1400 1399 1397 1397 1396 1395 1394 1393 1392 1391 1389 1389 1388 1387 1387 1387 1386 1386 1386 1386 1386 1385 1385 1385 1384 1384 1383 1383 1382 1381
1408 1408 1408 1408 1407 1407 1406 1405 1404 1403 1402 1401 1400 1399 1397 1397 1395 1394 1393 1392 1391 1390 1389 1387 1386 1386 1385 1385 1385 1385 1385 1385 1384 1384 1384 1384 1384 1383 1383 1383 1382 1382 1381
1407 1407 1406 1406 1406 1405 1404 1403 1401 1401 1400 1399 1398 1397 1396 1394 1393 1392 1391 1390 1389 1388 1387 1385 1385 1384 1384 1384 1384 1384 1383 1384 1383 1383 1383 1383 1383 1383 1382 1382 1382 1381 1381
1406 1406 1405 1405 1404 1404 1403 1402 1401 1399 1398 1397 1396 1395 1394 1393 1391 1390 1389 1388 1386 1386 1385 1384 1383 1383 1383 1383 1383 1383 1383 1383 1383 1382 1382 1382 1383 1383 1382 1382 1382 1381 1381
1404 1404 1404 1404 1403 1403 1402 1401 1400 1398 1397 1396 1395 1393 1393 1391 1390 1389 1387 1386 1385 1384 1383 1383 1382 1382 1382 1382 1382 1382 1382 1382 1382 1382 1382 1382 1382 1382 1382 1382 1381 1381 1381
1403 1403 1403 1402 1402 1401 1401 1400 1398 1397 1396 1395 1394 1392 1391 1390 1388 1387 1386 1385 1384 1383 1382 1382 1381 1381 1381 1381 1381 1381 1381 1381 1381 1381 1381 1381 1382 1382 1382 1381 1381 1381 1381
1402 1402 1402 1401 1401 1400 1399 1399 1398 1397 1395 1394 1393 1392 1391 1389 1388 1386 1385 1384 1383 1382 1381 1381 1380 1380 1380 1380 1380 1380 1380 1380 1380 1380 1380 1381 1381 1381 1381 1381 1381 1381 1381
1401 1401 1400 1400 1400 1399 1399 1398 1397 1396 1395 1394 1392 1391 1390 1389 1387 1386 1385 1384 1383 1382 1381 1380 1380 1380 1379 1380 1380 1380 1380 1380 1380 1380 1380 1380 1381 1381 1381 1381 1381 1381 1381
1400 1400 1400 1399 1399 1398 1398 1397 1396 1395 1394 1393 1392 1391 1390 1389 1387 1386 1385 1384 1383 1382 1381 1380 1380 1380 1380 1380 1380 1380 1380 1380 1380 1380 1380 1380 1380 1380 1380 1380 1381 1381 1381
1399 1399 1399 1398 1398 1398 1397 1397 1396 1395 1394 1393 1392 1391 1390 1389 1388 1387 1386 1384 1384 1383 1382 1381 1380 1380 1380 1380 1380 1380 1380 1380 1380 1380 1380 1380 1380 1380 1380 1380 1380 1381 1381
1398 1398 1398 1397 1397 1397 1397 1396 1395 1395 1394 1393 1392 1391 1390 1389 1388 1387 1386 1385 1384 1383 1382 1382 1381 1381 1381 1381 1380 1380 1380 1380 1380 1380 1379 1379 1379 1379 1380 1380 1380 1380 1381
1397 1397 1397 1397 1397 1396 1396 1396 1395 1395 1394 1393 1393 1392 1391 1390 1389 1388 1387 1386 1385 1384 1383 1383 1382 1382 1382 1381 1381 1380 1380 1380 1380 1380 1379 1379 1379 1379 1379 1380 1380 1380 1380